Time,TemperatureF,DewpointF,PressureIn,WindDirection,WindDirectionDegrees,WindSpeedMPH,WindSpeedGustMPH,Humidity,HourlyPrecipIn,Conditions,Clouds,dailyrainin,SoftwareType,DateUTC
2013-08-22 00:12:00,69.8,43.0,29.94,SSE,157,0.0,-999.0,38,-99.99,,,0.00,Acu-Link.com,2013-08-22 04:12:00,
2013-08-22 00:27:00,70.2,34.6,29.93,NNE,22,0.0,-999.0,27,-99.99,,,0.00,Acu-Link.com,2013-08-22 04:27:00,
2013-08-22 00:42:00,70.5,-3.7,29.94,NE,45,0.0,-999.0,5,-99.99,,,0.00,Acu-Link.com,2013-08-22 04:42:00,
2013-08-22 00:57:00,70.3,-34.6,29.93,NE,45,0.0,-999.0,1,-99.99,,,0.00,Acu-Link.com,2013-08-22 04:57:00,
2013-08-22 01:12:00,71.1,-34.2,29.93,SE,135,0.0,-999.0,1,-99.99,,,0.00,Acu-Link.com,2013-08-22 05:12:00,
2013-08-22 01:28:00,72.0,-33.6,29.95,NNE,22,0.0,-999.0,1,-99.99,,,0.00,Acu-Link.com,2013-08-22 05:28:00,
2013-08-22 01:43:00,72.1,-33.6,29.95,NE,45,0.0,-999.0,1,-99.99,,,0.00,Acu-Link.com,2013-08-22 05:43:00,
2013-08-22 01:58:00,72.5,-33.3,29.94,NNE,22,0.0,-999.0,1,-99.99,,,0.00,Acu-Link.com,2013-08-22 05:58:00,
2013-08-22 02:14:00,72.3,-33.4,29.94,NNE,22,0.0,-999.0,1,-99.99,,,0.00,Acu-Link.com,2013-08-22 06:14:00,
2013-08-22 02:29:00,72.3,-33.4,29.94,NE,45,0.0,-999.0,1,-99.99,,,0.00,Acu-Link.com,2013-08-22 06:29:00,
2013-08-22 02:44:00,72.1,-33.6,29.96,NNW,337,0.0,-999.0,1,-99.99,,,0.00,Acu-Link.com,2013-08-22 06:44:00,
2013-08-22 03:00:00,72.3,-33.4,29.93,NE,45,0.0,-999.0,1,-99.99,,,0.00,Acu-Link.com,2013-08-22 07:00:00,
2013-08-22 03:15:00,72.3,-33.4,29.93,NE,45,0.0,-999.0,1,-99.99,,,0.00,Acu-Link.com,2013-08-22 07:15:00,
2013-08-22 03:30:00,72.1,-33.6,29.93,ENE,67,0.0,-999.0,1,-99.99,,,0.00,Acu-Link.com,2013-08-22 07:30:00,
2013-08-22 03:45:00,72.0,-33.6,29.92,ENE,67,0.0,-999.0,1,-99.99,,,0.00,Acu-Link.com,2013-08-22 07:45:00,
2013-08-22 04:00:00,71.8,-33.7,29.92,NE,45,0.0,-999.0,1,-99.99,,,0.00,Acu-Link.com,2013-08-22 08:00:00,
2013-08-22 04:16:00,71.8,-33.7,29.92,ENE,67,0.0,-999.0,1,-99.99,,,0.00,Acu-Link.com,2013-08-22 08:16:00,
2013-08-22 04:31:00,71.4,-34.0,29.92,ENE,67,0.0,-999.0,1,-99.99,,,0.00,Acu-Link.com,2013-08-22 08:31:00,
2013-08-22 04:46:00,70.9,-34.3,29.91,NE,45,0.0,-999.0,1,-99.99,,,0.00,Acu-Link.com,2013-08-22 08:46:00,
2013-08-22 05:01:00,70.7,-34.4,29.91,SSW,202,0.0,-999.0,1,-99.99,,,0.00,Acu-Link.com,2013-08-22 09:01:00,
2013-08-22 05:16:00,70.7,-34.4,29.90,SSW,202,0.0,-999.0,1,-99.99,,,0.00,Acu-Link.com,2013-08-22 09:16:00,
2013-08-22 05:31:00,70.7,-34.4,29.91,WSW,247,0.0,-999.0,1,-99.99,,,0.00,Acu-Link.com,2013-08-22 09:31:00,
2013-08-22 05:46:00,71.1,-34.2,29.90,South,180,0.0,-999.0,1,-99.99,,,0.00,Acu-Link.com,2013-08-22 09:46:00,
2013-08-22 06:01:00,71.6,-33.9,29.90,SSW,202,0.0,-999.0,1,-99.99,,,0.00,Acu-Link.com,2013-08-22 10:01:00,
2013-08-22 06:17:00,71.6,-33.9,29.89,SE,135,0.0,-999.0,1,-99.99,,,0.01,Acu-Link.com,2013-08-22 10:17:00,
2013-08-22 06:32:00,71.6,-33.9,29.90,SSE,157,0.0,-999.0,1,-99.99,,,0.01,Acu-Link.com,2013-08-22 10:32:00,
2013-08-22 06:47:00,71.8,-33.7,29.90,SSW,202,0.0,-999.0,1,-99.99,,,0.01,Acu-Link.com,2013-08-22 10:47:00,
2013-08-22 08:34:00,74.5,-32.1,29.88,SSW,202,0.0,-999.0,1,-99.99,,,0.01,Acu-Link.com,2013-08-22 12:34:00,
2013-08-22 08:49:00,75.7,-31.4,29.87,SSW,202,0.0,-999.0,1,-99.99,,,0.01,Acu-Link.com,2013-08-22 12:49:00,
2013-08-22 09:04:00,77.2,-30.5,29.89,WSW,247,0.0,-999.0,1,-99.99,,,0.01,Acu-Link.com,2013-08-22 13:04:00,
2013-08-22 09:20:00,77.5,-30.3,29.88,SSW,202,0.0,-999.0,1,-99.99,,,0.01,Acu-Link.com,2013-08-22 13:20:00,
2013-08-22 09:35:00,76.5,-30.9,29.90,South,180,0.0,-999.0,1,-99.99,,,0.01,Acu-Link.com,2013-08-22 13:35:00,
2013-08-22 09:50:00,72.3,-33.4,29.89,SE,135,1.7,-999.0,1,-99.99,,,0.17,Acu-Link.com,2013-08-22 13:50:00,
2013-08-22 10:06:00,72.3,-33.4,29.88,ENE,67,0.0,-999.0,1,-99.99,,,0.44,Acu-Link.com,2013-08-22 14:06:00,
2013-08-22 10:21:00,73.4,-32.8,29.87,SSW,202,0.0,-999.0,1,-99.99,,,0.48,Acu-Link.com,2013-08-22 14:21:00,
2013-08-22 10:36:00,74.7,-32.0,29.88,South,180,0.0,-999.0,1,-99.99,,,0.50,Acu-Link.com,2013-08-22 14:36:00,
2013-08-22 10:51:00,75.9,-31.3,29.91,SE,135,0.0,-999.0,1,-99.99,,,0.50,Acu-Link.com,2013-08-22 14:51:00,
2013-08-22 11:07:00,76.6,-30.9,29.90,South,180,0.0,-999.0,1,-99.99,,,0.50,Acu-Link.com,2013-08-22 15:07:00,
2013-08-22 11:22:00,76.1,-31.2,29.89,SW,225,0.0,-999.0,1,-99.99,,,0.50,Acu-Link.com,2013-08-22 15:22:00,
2013-08-22 11:37:00,75.9,-31.3,29.90,SSW,202,0.0,-999.0,1,-99.99,,,0.50,Acu-Link.com,2013-08-22 15:37:00,
2013-08-22 11:53:00,76.8,-30.7,29.90,South,180,0.0,-999.0,1,-99.99,,,0.51,Acu-Link.com,2013-08-22 15:53:00,
2013-08-22 12:08:00,76.5,-30.9,29.89,WSW,247,0.0,-999.0,1,-99.99,,,0.51,Acu-Link.com,2013-08-22 16:08:00,
2013-08-22 12:23:00,76.6,-30.9,29.87,SSE,157,0.0,-999.0,1,-99.99,,,0.51,Acu-Link.com,2013-08-22 16:23:00,
2013-08-22 12:39:00,76.5,-30.9,29.87,South,180,0.0,-999.0,1,-99.99,,,0.51,Acu-Link.com,2013-08-22 16:39:00,
2013-08-22 12:54:00,76.8,-30.7,29.88,SSW,202,0.0,-999.0,1,-99.99,,,0.51,Acu-Link.com,2013-08-22 16:54:00,
2013-08-22 13:09:00,76.3,-31.0,29.86,SSW,202,0.0,-999.0,1,-99.99,,,0.51,Acu-Link.com,2013-08-22 17:09:00,
2013-08-22 13:24:00,77.5,-30.3,29.84,South,180,0.0,-999.0,1,-99.99,,,0.51,Acu-Link.com,2013-08-22 17:24:00,
2013-08-22 13:39:00,76.6,-30.9,29.84,South,180,1.1,-999.0,1,-99.99,,,0.51,Acu-Link.com,2013-08-22 17:39:00,
2013-08-22 13:54:00,76.8,-30.7,29.85,SSW,202,0.0,-999.0,1,-99.99,,,0.52,Acu-Link.com,2013-08-22 17:54:00,
2013-08-22 14:10:00,78.4,-29.8,29.84,West,270,0.0,-999.0,1,-99.99,,,0.52,Acu-Link.com,2013-08-22 18:10:00,
2013-08-22 14:25:00,78.4,-29.8,29.83,SSW,202,0.0,-999.0,1,-99.99,,,0.52,Acu-Link.com,2013-08-22 18:25:00,
2013-08-22 14:40:00,79.9,-28.9,29.81,SW,225,0.0,-999.0,1,-99.99,,,0.52,Acu-Link.com,2013-08-22 18:40:00,
2013-08-22 14:56:00,80.1,-28.8,29.80,SSW,202,1.7,-999.0,1,-99.99,,,0.52,Acu-Link.com,2013-08-22 18:56:00,
2013-08-22 15:11:00,79.0,-29.4,29.82,SSE,157,0.0,-999.0,1,-99.99,,,0.52,Acu-Link.com,2013-08-22 19:11:00,
2013-08-22 15:26:00,78.6,-29.7,29.79,SSE,157,0.0,-999.0,1,-99.99,,,0.52,Acu-Link.com,2013-08-22 19:26:00,
2013-08-22 15:42:00,78.6,-29.7,29.80,SW,225,0.0,-999.0,1,-99.99,,,0.52,Acu-Link.com,2013-08-22 19:42:00,
2013-08-22 15:57:00,79.7,-7.9,29.81,SW,225,0.0,-999.0,3,-99.99,,,0.52,Acu-Link.com,2013-08-22 19:57:00,
2013-08-22 16:12:00,79.3,42.4,29.79,SW,225,0.0,-999.0,27,-99.99,,,0.52,Acu-Link.com,2013-08-22 20:12:00,
2013-08-22 16:27:00,79.0,55.8,29.77,SW,225,0.0,-999.0,45,-99.99,,,0.52,Acu-Link.com,2013-08-22 20:27:00,
2013-08-22 16:42:00,78.3,59.2,29.78,West,270,0.0,-999.0,52,-99.99,,,0.52,Acu-Link.com,2013-08-22 20:42:00,
2013-08-22 16:57:00,78.6,58.4,29.76,SW,225,1.7,-999.0,50,-99.99,,,0.52,Acu-Link.com,2013-08-22 20:57:00,
2013-08-22 17:13:00,78.3,64.6,29.77,SSW,202,2.7,-999.0,63,-99.99,,,0.52,Acu-Link.com,2013-08-22 21:13:00,
2013-08-22 17:28:00,79.3,61.2,29.76,South,180,0.0,-999.0,54,-99.99,,,0.52,Acu-Link.com,2013-08-22 21:28:00,
2013-08-22 17:43:00,78.4,67.4,29.76,ESE,112,1.7,-999.0,69,-99.99,,,0.52,Acu-Link.com,2013-08-22 21:43:00,
2013-08-22 17:59:00,77.2,68.6,29.75,SW,225,1.7,-999.0,75,-99.99,,,0.52,Acu-Link.com,2013-08-22 21:59:00,
2013-08-22 18:14:00,77.7,66.7,29.76,SSW,202,1.7,-999.0,69,-99.99,,,0.52,Acu-Link.com,2013-08-22 22:14:00,
2013-08-22 18:29:00,77.5,66.9,29.74,SSW,202,1.7,-999.0,70,-99.99,,,0.52,Acu-Link.com,2013-08-22 22:29:00,
2013-08-22 18:45:00,77.2,67.9,29.75,SW,225,0.0,-999.0,73,-99.99,,,0.52,Acu-Link.com,2013-08-22 22:45:00,
2013-08-22 19:00:00,76.6,66.5,29.75,SSE,157,0.0,-999.0,71,-99.99,,,0.52,Acu-Link.com,2013-08-22 23:00:00,
2013-08-22 19:15:00,76.1,68.0,29.76,SW,225,0.0,-999.0,76,-99.99,,,0.52,Acu-Link.com,2013-08-22 23:15:00,
2013-08-22 19:30:00,75.0,66.9,29.76,South,180,0.0,-999.0,76,-99.99,,,0.52,Acu-Link.com,2013-08-22 23:30:00,
2013-08-22 19:45:00,74.5,63.2,29.74,SSE,157,0.0,-999.0,68,-99.99,,,0.52,Acu-Link.com,2013-08-22 23:45:00,
2013-08-22 20:00:00,73.9,55.7,29.74,SSW,202,0.0,-999.0,53,-99.99,,,0.52,Acu-Link.com,2013-08-23 00:00:00,
2013-08-22 20:16:00,73.9,47.4,29.75,SSW,202,0.0,-999.0,39,-99.99,,,0.52,Acu-Link.com,2013-08-23 00:16:00,
2013-08-22 20:31:00,73.9,20.0,29.76,SSW,202,0.0,-999.0,13,-99.99,,,0.52,Acu-Link.com,2013-08-23 00:31:00,
2013-08-22 20:46:00,74.1,-32.4,29.75,SW,225,0.0,-999.0,1,-99.99,,,0.52,Acu-Link.com,2013-08-23 00:46:00,
2013-08-22 21:01:00,74.1,-32.4,29.76,South,180,0.0,-999.0,1,-99.99,,,0.52,Acu-Link.com,2013-08-23 01:01:00,
2013-08-22 21:17:00,74.3,-32.2,29.77,South,180,0.0,-999.0,1,-99.99,,,0.52,Acu-Link.com,2013-08-23 01:17:00,
2013-08-22 21:32:00,74.7,-32.0,29.78,South,180,0.0,-999.0,1,-99.99,,,0.52,Acu-Link.com,2013-08-23 01:32:00,
2013-08-22 21:47:00,74.3,-32.2,29.78,SSW,202,0.0,-999.0,1,-99.99,,,0.52,Acu-Link.com,2013-08-23 01:47:00,
2013-08-22 22:02:00,73.9,-32.5,29.77,West,270,0.0,-999.0,1,-99.99,,,0.52,Acu-Link.com,2013-08-23 02:02:00,
2013-08-22 22:18:00,74.5,-32.1,29.74,WSW,247,0.0,-999.0,1,-99.99,,,0.52,Acu-Link.com,2013-08-23 02:18:00,
2013-08-22 22:33:00,73.9,-32.5,29.76,South,180,0.0,-999.0,1,-99.99,,,0.52,Acu-Link.com,2013-08-23 02:33:00,
2013-08-22 22:48:00,74.3,-32.2,29.76,SSW,202,0.0,-999.0,1,-99.99,,,0.52,Acu-Link.com,2013-08-23 02:48:00,
2013-08-22 23:03:00,74.1,-32.4,29.74,South,180,0.0,-999.0,1,-99.99,,,0.52,Acu-Link.com,2013-08-23 03:03:00,
2013-08-22 23:19:00,75.2,-31.7,29.74,SSW,202,0.0,-999.0,1,-99.99,,,0.52,Acu-Link.com,2013-08-23 03:19:00,
2013-08-22 23:34:00,75.4,-31.6,29.75,WSW,247,0.0,-999.0,1,-99.99,,,0.52,Acu-Link.com,2013-08-23 03:34:00,
2013-08-22 23:49:00,75.4,-31.6,29.75,SW,225,0.0,-999.0,1,-99.99,,,0.52,Acu-Link.com,2013-08-23 03:49:00,